This demonstration page uses our WeatherBlox Daily Observations layout. Learn more.

36.17497, -115.13722

Hourly Observations for November 27, 2019

Temp ( °F °C ) Dew Point ( °F °C ) Humidity (%) Winds ( mph kmh ) Pressure ( in mb ) Visibility ( mi km ) Precip ( " mm )
12:53 am 00:53 Clear 42 5.6 19 -7.2 40 40 ENE 8 13 29.78 1009 10 16.0934 0 0
1:53 am 01:53 Mostly Cloudy 43 6.1 20 -6.7 40 40 NE 9 15 29.75 1008 10 16.0934 0 0
2:53 am 02:53 Cloudy 44 6.7 18 -7.8 35 35 ENE 3 6 29.74 1007 10 16.0934 0 0
3:53 am 03:53 Cloudy 43 6.1 20 -6.7 40 40 NNE 3 6 29.71 1006 10 16.0934 0 0
4:53 am 04:53 Mostly Cloudy 43 6.1 18 -7.8 37 37 E 3 6 29.69 1005 10 16.0934 0 0
5:53 am 05:53 Cloudy 44 6.7 19 -7.2 37 37 Calm 29.69 1006 10 16.0934 0 0
6:53 am 06:53 Partly Cloudy 44 6.7 18 -7.8 35 35 Calm 29.68 1005 10 16.0934 0 0
7:53 am 07:53 Partly Cloudy 46 7.8 16 -8.9 30 30 ESE 7 11 29.67 1005 10 16.0934 0 0
8:53 am 08:53 Cloudy 48 8.9 15 -9.4 27 27 ESE 3 6 29.66 1004 10 16.0934 0 0
9:53 am 09:53 Cloudy 52 11.1 17 -8.3 25 25 SE 15 24 29.63 1003 10 16.0934 0 0
10:53 am 10:53 Cloudy 55 12.8 18 -7.8 23 23 S 17 28 29.58 1002 10 16.0934 0 0
11:53 am 11:53 Cloudy 57 13.9 19 -7.2 23 23 SSE 18 30 29.53 1000 10 16.0934 0 0
12:53 pm 12:53 Cloudy 56 13.3 20 -6.7 24 24 SSE 24 39 29.51 999 10 16.0934 0 0
1:53 pm 13:53 Cloudy 54 12.2 27 -2.8 35 35 W 14 22 29.52 1000 10 16.0934 0 0
2:00 pm 14:00 Cloudy 53 11.7 29 -1.7 40 40 SW 10 17 29.46 998 10 16.0934 0 0
2:53 pm 14:53 Cloudy 52 11.1 30 -1.1 43 43 WSW 17 28 29.52 1000 10 16.0934 0 0
3:53 pm 15:53 Cloudy 51 10.6 30 -1.1 44 44 WSW 14 22 29.53 1000 10 16.0934 0 0
4:53 pm 16:53 Cloudy 50 10 31 -0.6 48 48 SW 13 20 29.55 1001 10 16.0934 0.001 0.001
5:53 pm 17:53 Cloudy with Light Rain 48 8.9 36 2.2 63 63 SSW 10 17 29.59 1002 10 16.0934 0.01 0.254
6:53 pm 18:53 Cloudy with Light Rain 47 8.3 37 2.8 69 69 SSW 8 13 29.61 1003 10 16.0934 0.01 0.254
7:53 pm 19:53 Cloudy 47 8.3 35 1.7 63 63 S 10 17 29.61 1003 10 16.0934 0.001 0.001
8:53 pm 20:53 Cloudy 46 7.8 35 1.7 66 66 S 12 19 29.62 1003 10 16.0934 0 0
9:53 pm 21:53 Cloudy 46 7.8 34 1.1 63 63 SSW 9 15 29.64 1004 10 16.0934 0 0
10:53 pm 22:53 Clear 45 7.2 34 1.1 66 66 SSW 8 13 29.65 1004 10 16.0934 0 0
11:53 pm 23:53 Clear 44 6.7 33 0.6 65 65 SSW 8 13 29.65 1004 10 16.0934 0 0

Powered by AerisWeather